Change the Weather History Date:

Saturday, May 10, 2014

  Actual Average (KHKY) Record (KHKY)
Temperature  
Mean Temperature 65 °F -  
Max Temperature 73 °F 75 °F 90 °F (1955)
Min Temperature 57 °F 51 °F 35 °F (1966)
Growing Degree Days 15 (Base 50)    
Moisture  
Dew Point 63 °F    
Average Humidity 91    
Maximum Humidity 100    
Minimum Humidity 71    
Precipitation  
Precipitation 0.01 in - - ()
Sea Level Pressure  
Sea Level Pressure 30.14 in    
Wind  
Wind Speed 1 mph (SW)    
Max Wind Speed 8 mph    
Max Gust Speed -    
Visibility 8 miles    
Events Fog , Rain    
Averages and records for this station are not official NWS values.
T = Trace of Precipitation, MM = Missing Value Source: NWS Daily Summary

Daily Weather History Graph

Daily Weather History Graph

Search for Another Location

Airport or City:

Trip Planner

Search our weather history database for the weather conditions in past years. The results will help you decide how hot, cold, wet, or windy it might be!

Date:

Astronomy

May. 10, 2014 Rise Set
Actual Time 6:25 AM EDT 8:20 PM EDT
Civil Twilight 5:57 AM EDT 8:49 PM EDT
Nautical Twilight 5:23 AM EDT 9:23 PM EDT
Astronomical Twilight 4:46 AM EDT 9:59 PM EDT
Moon 4:23 PM EDT (5/10) 3:48 AM EDT (5/10)
Length of Visible Light 14h 51m
Length of Day
13h 55m
Waxing Gibbous, 82% of the Moon is Illuminated
May 10
Waxing Gibbous
May 14
Full
May 21
Last Quarter
May 28
New
Jun 5
First Quarter

Hourly Weather History & Observations

Time (EDT) Temp. Dew Point Humidity Pressure Visibility Wind Dir Wind Speed Gust Speed Precip Events Conditions
12:15 AM 63.5 °F 63.5 °F 100% 30.15 in 10.0 mi Calm Calm - N/A   Overcast
12:35 AM 63.9 °F 63.5 °F 99% 30.15 in 10.0 mi NW 3.5 mph - N/A   Mostly Cloudy
12:55 AM 62.6 °F 62.2 °F 99% 30.16 in 7.0 mi Calm Calm - N/A   Mostly Cloudy
1:15 AM 61.7 °F 61.7 °F 100% 30.15 in 5.0 mi Calm Calm - N/A   Overcast
1:35 AM 62.4 °F 62.4 °F 100% 30.15 in 10.0 mi Calm Calm - N/A   Overcast
1:55 AM 61.9 °F 61.9 °F 100% 30.14 in 7.0 mi Calm Calm - N/A   Mostly Cloudy
2:15 AM 61.0 °F 61.0 °F 100% 30.14 in 5.0 mi Calm Calm - N/A   Clear
2:35 AM 61.7 °F 61.7 °F 100% 30.14 in 10.0 mi Calm Calm - N/A   Scattered Clouds
2:55 AM 60.8 °F 60.8 °F 100% 30.13 in 5.0 mi Calm Calm - N/A   Clear
3:15 AM 61.0 °F 61.0 °F 100% 30.13 in 5.0 mi NW 3.5 mph - N/A   Clear
3:35 AM 61.7 °F 61.7 °F 100% 30.12 in 0.5 mi Calm Calm - N/A Fog Fog
3:55 AM 60.8 °F 60.8 °F 100% 30.12 in 0.2 mi Calm Calm - N/A Fog Fog
4:15 AM 60.3 °F 60.3 °F 100% 30.13 in 1.2 mi Calm Calm - N/A   Mist
4:35 AM 57.6 °F 57.6 °F 100% 30.14 in 0.2 mi Calm Calm - N/A Fog Fog
4:55 AM 57.2 °F 57.2 °F 100% 30.14 in 0.8 mi Calm Calm - N/A   Mostly Cloudy
5:15 AM 57.7 °F 57.7 °F 100% 30.14 in 5.0 mi Calm Calm - N/A   Clear
5:35 AM 57.6 °F 57.6 °F 100% 30.14 in 4.0 mi Calm Calm - N/A   Clear
5:55 AM 57.2 °F 57.2 °F 100% 30.14 in 0.5 mi Calm Calm - N/A Fog Fog
6:15 AM 57.4 °F 57.4 °F 100% 30.14 in 1.0 mi Calm Calm - N/A   Mostly Cloudy
6:35 AM 57.4 °F 57.4 °F 100% 30.15 in 0.8 mi Calm Calm - N/A   Mist
6:55 AM 58.1 °F 58.1 °F 100% 30.16 in 2.0 mi Calm Calm - N/A   Clear
7:15 AM 59.4 °F 59.4 °F 100% 30.16 in 2.0 mi Calm Calm - N/A   Clear
7:35 AM 60.3 °F 60.3 °F 100% 30.17 in 2.5 mi Calm Calm - N/A   Clear
7:55 AM 61.3 °F 61.3 °F 100% 30.17 in 5.0 mi Calm Calm - N/A   Clear
8:15 AM 61.9 °F 61.9 °F 100% 30.17 in 7.0 mi Calm Calm - N/A   Clear
8:35 AM 62.8 °F 62.8 °F 100% 30.17 in 10.0 mi Calm Calm - N/A   Clear
8:55 AM 63.0 °F 63.0 °F 100% 30.17 in 10.0 mi Calm Calm - N/A   Clear
9:15 AM 63.7 °F 63.7 °F 100% 30.17 in 10.0 mi Calm Calm - N/A   Clear
9:35 AM 64.4 °F 63.7 °F 98% 30.17 in 10.0 mi WNW 3.5 mph - N/A   Clear
9:55 AM 64.4 °F 63.5 °F 97% 30.18 in 7.0 mi Calm Calm - N/A Rain Rain
10:15 AM 65.3 °F 64.2 °F 96% 30.17 in 10.0 mi Calm Calm - N/A   Scattered Clouds
10:35 AM 65.5 °F 63.9 °F 94% 30.17 in 10.0 mi Calm Calm - N/A   Scattered Clouds
10:55 AM 66.7 °F 63.9 °F 90% 30.17 in 10.0 mi SSW 3.5 mph - N/A   Scattered Clouds
11:15 AM 66.2 °F 64.8 °F 95% 30.18 in 5.0 mi SE 3.5 mph - N/A Rain Light Rain
11:35 AM 66.7 °F 66.2 °F 98% 30.17 in 10.0 mi Calm Calm - 0.01 in   Mostly Cloudy
11:55 AM 68.5 °F 66.4 °F 93% 30.17 in 10.0 mi Calm Calm - 0.01 in   Scattered Clouds
12:15 PM 69.8 °F 65.7 °F 87% 30.17 in 10.0 mi SW 3.5 mph - N/A   Scattered Clouds
12:35 PM 71.2 °F 65.8 °F 83% 30.16 in 10.0 mi SSW 6.9 mph - N/A   Scattered Clouds
12:55 PM 72.3 °F 65.5 °F 79% 30.17 in 10.0 mi SSW 8.1 mph - N/A   Scattered Clouds
1:15 PM 70.7 °F 64.9 °F 82% 30.15 in 10.0 mi South 4.6 mph - N/A   Scattered Clouds
1:35 PM 71.4 °F 65.7 °F 82% 30.15 in 10.0 mi SSW 4.6 mph - N/A   Scattered Clouds
1:55 PM 72.1 °F 64.9 °F 78% 30.15 in 10.0 mi WSW 8.1 mph - N/A   Scattered Clouds
2:15 PM 72.7 °F 64.4 °F 75% 30.14 in 10.0 mi SW 5.8 mph - N/A   Clear
2:35 PM 73.2 °F 64.4 °F 74% 30.14 in 10.0 mi WSW 6.9 mph - N/A   Scattered Clouds
2:55 PM 72.9 °F 64.2 °F 74% 30.13 in 10.0 mi SW 5.8 mph - N/A   Mostly Cloudy
3:15 PM 73.0 °F 64.4 °F 74% 30.12 in 10.0 mi SSW 4.6 mph - N/A   Mostly Cloudy
3:35 PM 73.4 °F 64.0 °F 72% 30.12 in 10.0 mi WSW 5.8 mph - N/A   Mostly Cloudy
3:55 PM 73.6 °F 64.8 °F 74% 30.11 in 10.0 mi WSW 4.6 mph - N/A   Scattered Clouds
4:15 PM 73.4 °F 65.3 °F 76% 30.10 in 10.0 mi West 3.5 mph - N/A   Scattered Clouds
4:35 PM 73.2 °F 65.8 °F 78% 30.09 in 10.0 mi WSW 4.6 mph - N/A   Mostly Cloudy
4:55 PM 73.4 °F 65.8 °F 77% 30.09 in 10.0 mi SW 5.8 mph - N/A   Overcast
5:15 PM 73.4 °F 65.3 °F 76% 30.09 in 10.0 mi SSW 4.6 mph - N/A   Overcast
5:35 PM 73.4 °F 65.3 °F 76% 30.09 in 10.0 mi Calm Calm - N/A   Overcast
5:55 PM 73.4 °F 64.2 °F 73% 30.09 in 10.0 mi South 4.6 mph - N/A   Overcast
6:15 PM 73.4 °F 63.5 °F 71% 30.09 in 10.0 mi Calm Calm - N/A   Overcast
6:35 PM 73.2 °F 63.5 °F 71% 30.09 in 10.0 mi South 4.6 mph - N/A   Mostly Cloudy
6:55 PM 72.5 °F 63.0 °F 72% 30.09 in 10.0 mi Calm Calm - N/A   Scattered Clouds
7:15 PM 72.7 °F 63.0 °F 71% 30.09 in 10.0 mi Calm Calm - N/A   Mostly Cloudy
7:35 PM 72.9 °F 63.3 °F 72% 30.09 in 10.0 mi Calm Calm - N/A   Overcast
7:55 PM 71.8 °F 63.1 °F 74% 30.10 in 10.0 mi South 3.5 mph - N/A   Scattered Clouds
8:15 PM 70.0 °F 64.2 °F 82% 30.10 in 10.0 mi Calm Calm - N/A   Mostly Cloudy
8:35 PM 67.3 °F 65.3 °F 93% 30.11 in 10.0 mi Calm Calm - N/A   Mostly Cloudy
8:55 PM 65.5 °F 64.8 °F 98% 30.12 in 10.0 mi Calm Calm - N/A   Clear
9:15 PM 64.4 °F 63.9 °F 98% 30.12 in 7.0 mi Calm Calm - N/A   Clear
9:35 PM 63.0 °F 62.8 °F 99% 30.12 in 7.0 mi Calm Calm - N/A   Clear
9:55 PM 63.3 °F 63.3 °F 100% 30.13 in 7.0 mi Calm Calm - N/A   Scattered Clouds
10:15 PM 65.1 °F 65.1 °F 100% 30.13 in 10.0 mi Calm Calm - N/A   Mostly Cloudy
10:35 PM 65.7 °F 65.1 °F 98% 30.13 in 10.0 mi Calm Calm - N/A   Mostly Cloudy
10:55 PM 65.7 °F 64.8 °F 97% 30.14 in 10.0 mi Calm Calm - N/A   Scattered Clouds
11:15 PM 66.0 °F 61.2 °F 84% 30.14 in 10.0 mi Calm Calm - N/A   Clear
11:35 PM 61.3 °F 60.6 °F 97% 30.14 in 5.0 mi Calm Calm - N/A   Clear
11:55 PM 60.8 °F 60.4 °F 99% 30.14 in 5.0 mi Calm Calm - N/A   Clear